Location: Aiyekoto
(8.4333°N, 4.3667°E)
Time: 01:12:30
(UTC+00:00)

ADEOS - Visible Passes

Search period start: 14 June 2021 00:00
Search period end: 24 June 2021 00:00
Orbit: 792 x 795 km, 98.9° (Epoch: 13 June)

Date Brightness Start Highest point End Pass type
(mag) Time Alt. Az. Time Alt. Az. Time Alt. Az.
14 Jun 5.0 03:55:37 10° NE 04:00:21 36° ESE 04:05:06 10° SSE visible
15 Jun 6.1 03:28:41 10° ENE 03:31:53 16° E 03:35:03 10° SE visible
16 Jun 3.6 04:37:34 10° N 04:42:45 71° WNW 04:47:56 10° SSW visible
17 Jun 4.3 04:09:14 10° NNE 04:14:18 52° ESE 04:19:22 10° S visible
18 Jun 5.6 03:41:42 10° NE 03:45:49 24° ESE 03:49:55 10° SSE visible
19 Jun 6.5 03:16:54 10° E 03:17:20 10° E 03:17:45 10° ESE visible
19 Jun 3.9 04:51:40 10° N 04:56:39 48° WNW 05:01:39 10° SSW visible
20 Jun 3.7 04:23:01 10° NNE 04:28:13 77° ESE 04:33:26 10° S visible
21 Jun 5.1 03:55:04 10° NE 03:59:45 34° ESE 04:04:27 10° SSE visible
22 Jun 6.1 03:28:15 10° ENE 03:31:16 16° E 03:34:17 10° SE visible
23 Jun 3.5 04:36:57 10° N 04:42:08 74° WNW 04:47:20 10° SSW visible
